Flag for Germany Weather past 2 weeks in Mühlhausen/Thüringen, Thuringia, Germany

Now
21 °F

Passing clouds.


Feels Like: 14 °F
Forecast: 17 / 34 °F
Wind: 5 mph from Northeast

Location: Erfurt-Bindersleben

Current Time: Dec 28, 2014 at 1:20:39 PM

Latest Report: Dec 28, 2014 at 1:00 PM


Visibility: 10 mi

Pressure: 30.29 "Hg

Humidity: 81%

Dew point: 16 °F

Location of Mühlhausen/ThüringenLocation

Historic Weather in Mühlhausen/Thüringen — Graph

°F

Mühlhausen/Thüringen temperature yesterday

Maximum temperature yesterday: 30 °F (at 1:00 PM)
Minimum temperature yesterday: 24 °F (at 11:00 PM)
Average temperature yesterday: 27 °F

Past Weeks' High & Low Weather Summary

 TemperatureHumidityPressure
High54 °F (Dec 18, 11:00 PM)100% (Dec 13, 10:00 PM)30.40 "Hg (Dec 13, 10:00 PM)
Low16 °F (Dec 28, 10:00 AM)54% (Dec 27, 2:00 PM)29.65 "Hg (Dec 27, 4:00 PM)
Average39 °F86%30.01 "Hg
* Reported Dec 13 12:00 Noon — Dec 28 12:00 Noon, Mühlhausen/Thüringen, Weather by CustomWeather, © 2014

Note: Actual official high and low records may vary slightly from our data, if they occured in-between our weather recording intervals... More about our weather records

Advertising

Mühlhausen/Thüringen weather history for previous 24 hours

 ConditionsComfort  
Time TempWeatherWind HumidityBarometerVisibility
12:00 PM
Dec 28
18 °FPartly sunny.6 mph89%30.27 "Hg9 mi
11:00 AM17 °FLow clouds.7 mph90%30.24 "Hg11 mi
10:00 AM16 °FPartly sunny.6 mph90%30.20 "Hg10 mi
9:00 AM17 °FOvercast.8 mph87%30.16 "Hg10 mi
8:00 AM17 °FOvercast.8 mph88%30.12 "Hg10 mi
7:00 AM17 °FOvercast.10 mph89%30.06 "Hg11 mi
6:00 AM18 °FLow clouds.8 mph90%30.01 "Hg11 mi
5:00 AM18 °FLow clouds.7 mph90%29.97 "Hg10 mi
4:00 AM19 °FLow clouds.8 mph90%29.93 "Hg11 mi
3:00 AM20 °FLow clouds.8 mph91%29.89 "Hg11 mi
2:00 AM21 °FLow clouds.10 mph90%29.84 "Hg16 mi
1:00 AM23 °FOvercast.8 mph89%29.81 "Hg22 mi
12:00 AM23 °FOvercast.8 mph89%29.79 "Hg22 mi
11:00 PM
Dec 27
24 °FOvercast.8 mph87%29.77 "Hg19 mi
10:00 PM24 °FOvercast.8 mph86%29.74 "Hg19 mi
9:00 PM24 °FOvercast.6 mph85%29.72 "Hg19 mi
8:00 PM26 °FOvercast.8 mph76%29.69 "Hg25 mi
7:00 PM26 °FOvercast.7 mph75%29.67 "Hg31 mi
6:00 PM27 °FOvercast.6 mph75%29.66 "Hg31 mi
5:00 PM27 °FOvercast.5 mph79%29.65 "Hg43 mi
4:00 PM28 °FOvercast.6 mph72%29.65 "Hg47 mi
3:00 PM30 °FOvercast.5 mph57%29.65 "Hg47 mi
2:00 PM30 °FOvercast.8 mph54%29.67 "Hg47 mi
1:00 PM30 °FOvercast.3 mph55%29.69 "Hg37 mi
Weather by CustomWeather, © 2014

See weather overviewHow to use our weather pages